Location: Newark
(44.3248°N, 23.7839°E)
Time: 22:36:11
(UTC+00:00)

PCSat - Pass Details

Date: 18 April 2024
Orbit: 783 x 792 km, 67.1° (Epoch: 20 May)

Event Time Altitude Azimuth Distance (km) Brightness Sun altitude
Rises 03:04:58 0° 329° (NNW) 3,299 12.7 -6.0°
Reaches altitude 10° 03:07:24 10° 332° (NNW) 2,367 12.0 -5.6°
Maximum altitude 03:12:50 71° 57° (ENE) 838 10.0 -4.7°
Drops below altitude 10° 03:18:13 10° 141° (SE) 2,352 12.3 -3.8°
Sets 03:20:38 0° 144° (SE) 3,277 13.0 -3.4°
